Location: Owatonna
(44.0840°N, 93.2260°W)
Time: 02:59:53
(UTC-06:00)

Tiangong 1 - Visible Passes

Search period start: 25 February 2017 00:00
Search period end: 07 March 2017 00:00
Orbit: 338 x 362 km, 42.8° (Epoch: 24 February)

Date Brightness Start Highest point End Pass type
(mag) Time Alt. Az. Time Alt. Az. Time Alt. Az.
25 Feb 1.3 05:31:47 39° SW 05:32:31 53° S 05:35:24 10° E visible
26 Feb 4.3 04:24:18 12° E 04:24:18 12° E 04:24:35 10° E visible
26 Feb 1.0 05:55:47 19° WSW 05:57:40 68° S 06:00:36 10° E visible
27 Feb 2.9 04:48:13 27° ESE 04:48:13 27° ESE 04:49:48 10° E visible
27 Feb 1.1 06:19:53 10° W 06:22:46 60° S 06:25:40 10° ESE visible
28 Feb 0.9 05:12:05 67° SSE 05:12:05 67° SSE 05:14:52 10° E visible
01 Mar 1.1 05:35:55 33° WSW 05:36:57 57° S 05:39:50 10° ESE visible
02 Mar 3.9 04:28:14 16° E 04:28:14 16° E 04:28:57 10° E visible
02 Mar 1.8 05:59:43 14° W 06:01:50 34° SSW 06:04:31 10° SE visible
03 Mar 2.5 04:52:03 30° SE 04:52:03 30° SE 04:53:47 10° ESE visible
04 Mar 2.0 05:15:52 30° SSW 05:15:52 30° SSW 05:18:17 10° SE visible
05 Mar 2.9 05:39:45 15° SW 05:40:15 15° SSW 05:42:02 10° S visible
